This demonstration page uses our WeatherBlox Daily Observations layout. Learn more.

Hourly Observations for October 6, 2017

Temp ( °F °C ) Dew Point ( °F °C ) Humidity (%) Winds ( mph kmh ) Pressure ( in mb ) Visibility ( mi km ) Precip ( " mm )
12:04 am 00:04 Cloudy with Mist and Fog 64 17.8 63 17.2 96 96 N 7 11 29.97 1015 2 3.21868 0 0
12:13 am 00:13 Cloudy with Mist and Fog 64 17.8 63 17.2 96 96 N 7 11 29.97 1015 1.25 2.011675 0 0
12:37 am 00:37 Cloudy with Mist and Fog 63 17.2 63 17.2 100 100 N 8 13 29.97 1015 3 4.82802 0 0
12:54 am 00:54 Cloudy with Mist and Fog 63 17.2 63 17.2 100 100 NNE 7 11 29.98 1015 4 6.43736 0 0
1:54 am 01:54 Cloudy with Mist and Fog 63 17.2 62 16.7 97 97 NNE 7 11 29.98 1015 3 4.82802 0 0
2:03 am 02:03 Cloudy with Mist and Fog 63 17.2 62 16.7 97 97 NNE 7 11 29.97 1015 2.5 4.02335 0 0
2:18 am 02:18 Cloudy with Mist and Fog 63 17.2 62 16.7 97 97 NNE 7 11 29.97 1015 3 4.82802 0 0
2:30 am 02:30 Cloudy with Mist and Fog 63 17.2 62 16.7 97 97 NNE 7 11 29.97 1015 2.5 4.02335 0 0
2:40 am 02:40 Cloudy with Mist and Fog 63 17.2 62 16.7 97 97 NNE 8 13 29.94 1014 3 4.82802 0 0
2:54 am 02:54 Cloudy with Mist and Fog 63 17.2 61 16.1 93 93 NNE 7 11 29.96 1015 4 6.43736 0 0
3:54 am 03:54 Cloudy with Mist and Fog 62 16.7 61 16.1 96 96 NE 7 11 29.93 1014 3 4.82802 0 0
4:08 am 04:08 Cloudy with Mist and Fog 62 16.7 61 16.1 96 96 NE 7 11 29.91 1013 2 3.21868 0 0
4:22 am 04:22 Cloudy with Mist and Fog 62 16.7 61 16.1 96 96 NE 6 9 29.91 1013 1.5 2.41401 0 0
4:54 am 04:54 Cloudy with Mist and Fog 62 16.7 61 16.1 96 96 NE 6 9 29.92 1013 1.5 2.41401 0 0
5:54 am 05:54 Cloudy with Mist and Fog 62 16.7 61 16.1 96 96 NE 5 7 29.9 1013 1.5 2.41401 0 0
6:30 am 06:30 Cloudy with Mist and Fog 62 16.7 61 16.1 96 96 ENE 5 7 29.88 1012 2 3.21868 0 0
6:54 am 06:54 Cloudy with Mist and Fog 62 16.7 62 16.7 100 100 E 5 7 29.88 1012 1.5 2.41401 0 0
7:24 am 07:24 Cloudy with Mist and Fog 63 17.2 62 16.7 97 97 E 5 7 29.85 1011 0.75 1.207005 0 0
7:33 am 07:33 Cloudy with Mist and Fog 63 17.2 62 16.7 97 97 ENE 5 7 29.85 1011 1 1.60934 0 0
7:54 am 07:54 Cloudy with Mist and Fog 63 17.2 62 16.7 97 97 E 8 13 29.85 1011 1 1.60934 0 0
8:02 am 08:02 Cloudy with Mist and Fog 63 17.2 62 16.7 97 97 ENE 8 13 29.85 1011 0.75 1.207005 0 0
8:54 am 08:54 Cloudy with Light Rain 64 17.8 63 17.2 96 96 E 3 6 29.85 1011 0.75 1.207005 0 0.0254
9:54 am 09:54 Cloudy with Mist and Fog 65 18.3 64 17.8 97 97 E 5 7 29.82 1010 0.75 1.207005 0 0.0254
10:01 am 10:01 Cloudy with Mist and Fog 65 18.3 64 17.8 97 97 Calm 29.8 1009 1 1.60934 0 0
10:54 am 10:54 Cloudy with Mist and Fog 67 19.4 66 18.9 97 97 SE 6 9 29.81 1010 1 1.60934 0 0
11:54 am 11:54 Cloudy with Mist and Fog 70 21.1 69 20.6 97 97 SSE 7 11 29.78 1009 1 1.60934 0.01 0.254
11:56 am 11:56 Cloudy with Mist and Fog 70 21.1 69 20.6 97 97 S 6 9 29.77 1008 4 6.43736 0 0
12:30 pm 12:30 Cloudy 72 22.2 69 20.6 91 91 S 6 9 29.71 1006 7 11.26538 0 0
12:49 pm 12:49 Cloudy 73 23 70 21 89 89 SSW 5 7 29.71 1006 8 12.87472 0 0
12:54 pm 12:54 Cloudy 73 22.8 69 20.6 87 87 S 3 6 29.75 1007 8 12.87472 0 0
1:04 pm 13:04 Cloudy 65 18.3 62 16.7 90 90 undefined N/A 29.74 1007 9 14.48406 0 0
1:17 pm 13:17 Cloudy 61 16.1 59 15 93 93 N 18 30 29.74 1007 10 16.0934 0 0
1:37 pm 13:37 Cloudy with Light Rain 59 15 58 14.4 96 96 N 17 28 29.74 1007 1.75 2.816345 0 0.0254
1:51 pm 13:51 Cloudy with Light Rain 59 15 57 14 94 94 N 15 24 29.74 1007 3 4.82802 0.01 0.254
1:54 pm 13:54 Cloudy with Light Rain 59 15 58 14.4 96 96 N 15 24 29.74 1007 4 6.43736 0.01 0.254
2:29 pm 14:29 Cloudy with Rain 59 15 58 14.4 96 96 NNE 10 17 29.71 1006 1.5 2.41401 0.03 0.762
2:38 pm 14:38 Cloudy with Light Rain 59 15 58 14.4 96 96 NNE 10 17 29.71 1006 2 3.21868 0.03 0.762
2:54 pm 14:54 Cloudy with Light Rain 59 15 58 14.4 96 96 NNE 10 17 29.72 1007 2 3.21868 0.05 1.27
3:54 pm 15:54 Cloudy with Light Rain 60 15.6 59 15 96 96 NE 10 17 29.69 1005 2 3.21868 0.05 1.27
4:54 pm 16:54 Cloudy 61 16.1 59 15 93 93 ENE 7 11 29.66 1004 10 16.0934 0.01 0.254
5:54 pm 17:54 Cloudy 62 16.7 60 15.6 93 93 E 8 13 29.62 1003 10 16.0934 0.01 0.254
6:45 pm 18:45 Cloudy 62 16.7 60 15.6 93 93 NE 6 9 29.59 1002 10 16.0934 0 0
6:54 pm 18:54 Cloudy 62 16.7 60 15.6 93 93 NE 9 15 29.59 1002 10 16.0934 0 0
7:54 pm 19:54 Cloudy with Nearby Thunderstorms 61 16.1 59 15 93 93 NE 10 17 29.57 1001 9 14.48406 0 0.0254
8:20 pm 20:20 Cloudy with Thunderstorms 61 16.1 59 15 93 93 NNW 9 15 29.56 1001 3 4.82802 0.05 1.27
8:29 pm 20:29 Cloudy with Heavy Thunderstorms 60 15.6 59 15 96 96 NNE 8 13 29.56 1001 2 3.21868 0.14 3.556
8:41 pm 20:41 Cloudy with Light Thunderstorms 60 15.6 59 15 96 96 N 8 13 29.56 1001 4 6.43736 0.18 4.572
8:50 pm 20:50 Cloudy with Heavy Thunderstorms 61 16 59 15 94 94 NNW 13 20 29.56 1001 3 4.82802 0.21 5.334
8:54 pm 20:54 Cloudy with Heavy Thunderstorms 60 15.6 58 14.4 93 93 N 8 13 29.57 1001 2.5 4.02335 0.23 5.842
9:00 pm 21:00 Cloudy with Heavy Thunderstorms 60 15.6 59 15 96 96 NNE 5 7 29.56 1001 1.5 2.41401 0.09 2.286
9:19 pm 21:19 Cloudy with Heavy Thunderstorms 59 15 58 14.4 96 96 N 16 26 29.56 1001 2.5 4.02335 0.32 8.128
9:23 pm 21:23 Cloudy with Nearby Thunderstorms 59 15 58 14.4 96 96 N 17 28 29.56 1001 3 4.82802 0.34 8.636
9:46 pm 21:46 Cloudy with Thunderstorms 59 15 58 14.4 96 96 N 17 28 29.56 1001 5 8.0467 0.41 10.414
9:54 pm 21:54 Cloudy with Thunderstorms 59 15 58 14.4 96 96 N 9 15 29.6 1003 4 6.43736 0.44 11.176
10:01 pm 22:01 Cloudy with Nearby Thunderstorms 59 15 57 13.9 93 93 N 12 19 29.59 1002 4 6.43736 0.03 0.762
10:16 pm 22:16 Cloudy with Heavy Rain 58 14.4 57 13.9 97 97 N 18 30 29.59 1002 2.5 4.02335 0.11 2.794
10:21 pm 22:21 Cloudy with Heavy Rain 58 14.4 56 13.3 93 93 N 17 28 29.56 1001 3 4.82802 0.15 3.81
10:24 pm 22:24 Cloudy with Heavy Thunderstorms 58 14.4 56 13.3 93 93 N 15 24 29.56 1001 3 4.82802 0.17 4.318
10:43 pm 22:43 Cloudy with Light Rain 58 14.4 56 13.3 93 93 N 15 24 29.56 1001 8 12.87472 0.23 5.842
10:54 pm 22:54 Cloudy with Light Rain 58 14.4 56 13.3 93 93 N 15 24 29.55 1001 10 16.0934 0.24 6.096
11:03 pm 23:03 Cloudy with Rain 58 14.4 56 13.3 93 93 N 16 26 29.56 1001 7 11.26538 0.02 0.508
11:34 pm 23:34 Cloudy with Rain 57 13.9 55 12.8 93 93 N 20 31 29.56 1001 6 9.65604 0.12 3.048
11:54 pm 23:54 Cloudy with Light Rain 57 13.9 55 12.8 93 93 N 18 30 29.52 1000 10 16.0934 0.13 3.302

Powered by AerisWeather